Flag for Germany Weather past 2 weeks in Lübbecke, North Rhine-Westphalia, Germany

Now
34 °F

Passing clouds.


Feels Like: 26 °F
Forecast: 26 / 31 °F
Wind: 10 mph from West

Location: Bueckeburg

Current Time: Feb 2, 2015 at 1:33:45 AM

Latest Report: Feb 2, 2015 at 12:20 AM


Visibility: 5 mi

Pressure: 29.36 "Hg

Humidity: 87%

Dew point: 30 °F

Location of LübbeckeLocation

Historic Weather in Lübbecke — Graph

°F

Lübbecke temperature yesterday

Maximum temperature yesterday: 37 °F (at 2:20 PM)
Minimum temperature yesterday: 32 °F (at 12:20 AM)
Average temperature yesterday: 34 °F

Past Weeks' High & Low Weather Summary

 TemperatureHumidityPressure
High43 °F (Jan 28, 12:20 PM)100% (Jan 20, 6:20 AM)30.33 "Hg (Jan 20, 6:20 AM)
Low27 °F (Jan 21, 7:20 AM)60% (Jan 21, 1:20 PM)28.68 "Hg (Jan 30, 2:20 AM)
Average34 °F87%29.71 "Hg
* Reported Jan 18 12:20 AM — Feb 2 12:20 AM, Lübbecke, Weather by CustomWeather, © 2014

Note: Actual official high and low records may vary slightly from our data, if they occured in-between our weather recording intervals... More about our weather records

Advertising

Lübbecke weather history for previous 24 hours

 ConditionsComfort  
Time TempWeatherWind HumidityBarometerVisibility
12:20 AM
Feb 2
34 °FPassing clouds.10 mph87%29.36 "Hg5 mi
11:20 PM
Feb 1
34 °FPassing clouds.9 mph93%29.33 "Hg4 mi
10:20 PM36 °FLow clouds.8 mph87%29.33 "Hg4 mi
9:20 PM36 °FPassing clouds.7 mph87%29.33 "Hg5 mi
8:47 PM36 °FPassing clouds.7 mph87%29.33 "Hg5 mi
8:20 PM34 °FPassing clouds.5 mph93%29.33 "Hg4 mi
7:20 PM36 °FPassing clouds.7 mph87%29.30 "Hg4 mi
6:20 PM36 °FPassing clouds.3 mph87%29.30 "Hg4 mi
5:20 PM36 °FPassing clouds.6 mph87%29.27 "HgN/A
4:20 PM36 °FBroken clouds.5 mph81%29.24 "Hg6 mi
3:20 PM36 °FPartly sunny.5 mph81%29.24 "HgN/A
2:20 PM37 °FPartly sunny.8 mph75%29.24 "HgN/A
1:20 PM36 °FPartly sunny.8 mph81%29.21 "HgN/A
12:20 PM36 °FScattered clouds.9 mph81%29.21 "HgN/A
12:00 PM36 °FPartly sunny.8 mph81%29.21 "Hg6 mi
11:20 AM34 °FPartly sunny.6 mph87%29.21 "Hg6 mi
10:55 AM34 °FPartly sunny.6 mph87%29.21 "Hg5 mi
10:20 AM34 °FPartly sunny.5 mph87%29.18 "Hg4 mi
9:20 AM34 °FPartly sunny.8 mph87%29.18 "Hg4 mi
8:20 AM34 °FPartly sunny.7 mph87%29.15 "Hg4 mi
7:53 AM32 °FPassing clouds.6 mph93%29.15 "Hg4 mi
7:20 AM32 °FPassing clouds.5 mph87%29.15 "Hg4 mi
6:51 AM32 °FPassing clouds.9 mph93%29.12 "Hg4 mi
6:20 AM34 °FPassing clouds.8 mph87%29.12 "Hg4 mi
5:20 AM34 °FPassing clouds.7 mph87%29.12 "HgN/A
4:20 AM34 °FPassing clouds.7 mph87%29.12 "HgN/A
3:20 AM34 °FPassing clouds.8 mph87%29.09 "HgN/A
2:20 AM34 °FPartly cloudy.9 mph87%29.09 "HgN/A
1:20 AM34 °FPartly cloudy.6 mph87%29.09 "HgN/A
Weather by CustomWeather, © 2014

See weather overviewHow to use our weather pages